Regional Weather Roundup
Issued by NWS Jackson, KY

Home | Current Version | Previous Version | Text Only | Print | Product List | Glossary Off
Versions: 1 2 3 4 5 6 7 8 9 10 11 12 13 14 15 16 17 18 19 20 21 22 23 24 25 26 27 28 29 30 31 32 33 34 35 36 37 38 39 40 41 42 43 44 45 46 47 48 49 50

000
ASUS43 KJKL 301810
RWRJKL

EAST KENTUCKY HOURLY WEATHER ROUNDUP
NATIONAL WEATHER SERVICE JACKSON KY
200 PM EDT SUN AUG 30 2015

NOTE: "FAIR" INDICATES FEW OR NO CLOUDS BELOW 12,000 FEET WITH
NO SIGNIFICANT WEATHER AND/OR OBSTRUCTIONS TO VISIBILITY.

* THESE REPORTS ARE NOT UNDER NWS QUALITY CONTROL AND MAY NOT
  REPORT WEATHER SUCH AS PRECIPITATION AND FOG.

KYZ079-080-083-085-087-088-110-112-115-119-120-301900
...EASTERN KENTUCKY...

CITY           SKY/WX    TMP DP  RH WIND       PRES   REMARKS
JACKSON        PTSUNNY   80  64  58 CALM      30.18F
6HR MIN TEMP:  66; 6HR MAX TEMP:  81;

LONDON         CLOUDY    80  59  48 SW5       30.17F
6HR MIN TEMP:  67; 6HR MAX TEMP:  81;

SOMERSET*      MOSUNNY   77  63  61 S5        30.17F
MONTICELLO*    CLOUDY    81  66  60 S9        30.19F
6HR MIN TEMP:  68; 6HR MAX TEMP:  82;

WILLIAMSBURG*  MOSUNNY   77  63  61 CALM      30.17F
MIDDLESBORO*   CLOUDY    77  66  69 CALM      30.18F
6HR MIN TEMP:  64; 6HR MAX TEMP:  77;

HARLAN APT*      N/A     75  64  69 MISG      30.19
HAZARD APT*    CLEAR     81  63  54 SW3       30.18F
BLACK MTN*       N/A     66  61  82 N3          N/A
PIKEVILLE APT* SUNNY     75  64  69 CALM      30.20F
BIG SANDY*     CLOUDY    77  67  71 SW3       30.18F
6HR MIN TEMP:  67; 6HR MAX TEMP:  77;

MOREHEAD APT*  MOCLDY    81  66  61 SW9       30.17S
$$

KYZ035-036-041-042-044-050-067-078-099-301900
...CENTRAL KENTUCKY...

CITY           SKY/WX    TMP DP  RH WIND       PRES   REMARKS
MT STERLING*   PTSUNNY   81  66  61 SW5       30.16F
FLEMING/MASON* MOSUNNY   82  68  61 S7        30.13F
DANVILLE*      PTSUNNY   82  66  57 SW9       30.16F
RICHMOND*      PTSUNNY   81  63  54 W6        30.15F
LEXINGTON      PTSUNNY   84  67  56 S13       30.13F
6HR MIN TEMP:  68; 6HR MAX TEMP:  84;

FRANKFORT      PTSUNNY   84  66  54 MISG      30.10F
6HR MIN TEMP:  68; 6HR MAX TEMP:  85; 6HR PCP:  0.07;

$$

KYZ091>093-OHZ055-061-077-WVZ005-015-034-035-042-301900
...SOUTHERN OHIO/WEST VIRGINIA...

CITY           SKY/WX    TMP DP  RH WIND       PRES   REMARKS
COVINGTON      PTSUNNY   83  70  64 SW7       30.10F
COLUMBUS       PTSUNNY   83  68  60 VRB7      30.09F
DAYTON         MOSUNNY   83  70  64 SW9       30.10F
WILMINGTON     MOSUNNY   82  69  64 SW10      30.11F
HUNTINGTON     CLOUDY    84  64  50 SW8       30.14F
CHARLESTON     CLOUDY    83  67  58 VRB5      30.15F
PINEVILLE*     CLOUDY    78  67  69 MISG      30.25F
BECKLEY        CLOUDY    77  63  61 VRB3      30.24S
BLUEFIELD      CLOUDY    76  60  57 SE5       30.26F
$$

VAZ002-007-008-TNZ017-027-036-066-071-301900
...SOUTHWEST VIRGINIA/EAST TENNESSEE...

CITY           SKY/WX    TMP DP  RH WIND       PRES   REMARKS
WISE*          CLOUDY    73  61  64 N5        30.26F
JONESVILLE*    CLOUDY    75  54  46 NE3       30.21F
ABINGDON*      CLOUDY    79  60  50 E3        30.22F
BRISTOL        CLOUDY    78  61  55 VRB3      30.19F
KNOXVILLE      CLOUDY    71  65  81 E46       30.15F
OAK RIDGE      CLOUDY    79  66  64 CALM      30.17F
CROSSVILLE     CLOUDY    74  61  63 CALM      30.20F
NASHVILLE      PTSUNNY   78  67  68 S10       30.15F
$$

...KEY TO REMARKS...
VSB - VISIBILITY IN MILES
WCI - WIND CHILL INDEX
HX  - HEAT INDEX

$$


USA.gov is the U.S. government's official web portal to all federal, state and local government web resources and services.